{"data":{"norad_id":64763,"epoch":"2026-05-25T00:10:33.229056Z","epoch_age_seconds":71446,"freshness":"FRESH","line1":"1 64763U 25147J   26145.00732904  .00018243  00000+0  54971-3 0  9994","line2":"2 64763  53.1606 247.7456 0001295  85.1070 275.0081 15.34402771 50442","mean_motion":15.34402771,"eccentricity":0.0001295,"inclination_deg":53.1606,"raan_deg":247.7456,"arg_perigee_deg":85.107,"mean_anomaly_deg":275.0081,"bstar":0.00054971,"rev_number":5044,"period_min":93.847588600321,"perigee_km":461.80911647899,"apogee_km":463.58089196808,"semimajor_km":6840.8320042235,"source":"CELESTRAK","updated_at":"2026-05-25T13:38:20.554578Z"}}